Location: Austin
(30.3000°N, 97.7500°W)
Time: 05:05:05
(UTC-06:00)

NOAA 6 - Pass Details

Date: 03 March 2026
Orbit: 767 x 780 km, 98.6° (Epoch: 5 March)

Event Time Altitude Azimuth Distance (km) Brightness Sun altitude
Rises 19:06:07 0° 153° (SSE) 3,248 7.0 -8.3°
Reaches altitude 10° 19:08:28 10° 148° (SSE) 2,324 6.2 -8.8°
Maximum altitude 19:13:25 51° 74° (ENE) 975 4.2 -9.9°
Drops below altitude 10° 19:18:24 10° 359° (N) 2,335 6.5 -10.9°
Sets 19:20:46 0° 355° (N) 3,265 7.3 -11.4°
